Year,Month,Day,Hour,Minute,Value (Times are PST for windspeed in km/hr)
2014,02,16,00,00,12.90
2014,02,16,00,01,9.00
2014,02,16,00,02,13.70
2014,02,16,00,03,10.80
2014,02,16,00,04,6.40
2014,02,16,00,05,21.10
2014,02,16,00,06,14.60
2014,02,16,00,07,8.50
2014,02,16,00,08,11.50
2014,02,16,00,09,15.70
2014,02,16,00,10,19.70
2014,02,16,00,11,17.00
2014,02,16,00,12,21.50
2014,02,16,00,13,16.80
2014,02,16,00,14,22.30
2014,02,16,00,15,12.80
2014,02,16,00,16,13.70
2014,02,16,00,17,11.60
2014,02,16,00,18,11.40
2014,02,16,00,19,14.60
2014,02,16,00,20,20.60
2014,02,16,00,21,16.10
2014,02,16,00,22,18.20
2014,02,16,00,23,12.70
2014,02,16,00,24,7.10
2014,02,16,00,25,7.60
2014,02,16,00,26,11.40
2014,02,16,00,27,8.70
2014,02,16,00,28,9.40
2014,02,16,00,29,12.20
2014,02,16,00,30,6.00
2014,02,16,00,31,4.70
2014,02,16,00,32,9.10
2014,02,16,00,33,7.70
2014,02,16,00,34,7.80
2014,02,16,00,35,9.10
2014,02,16,00,36,9.30
2014,02,16,00,37,11.70
2014,02,16,00,38,10.10
2014,02,16,00,39,12.40
2014,02,16,00,40,11.30
2014,02,16,00,41,12.70
2014,02,16,00,42,14.20
2014,02,16,00,43,14.20
2014,02,16,00,44,12.40
2014,02,16,00,45,11.60
2014,02,16,00,46,11.10
2014,02,16,00,47,7.70
2014,02,16,00,48,11.70
2014,02,16,00,49,11.20
2014,02,16,00,50,12.90
2014,02,16,00,51,11.20
2014,02,16,00,52,11.60
2014,02,16,00,53,8.00
2014,02,16,00,54,7.80
2014,02,16,00,55,8.20
2014,02,16,00,56,10.20
2014,02,16,00,57,7.50
2014,02,16,00,58,9.00
2014,02,16,00,59,10.50
2014,02,16,01,00,6.30
2014,02,16,01,01,6.20
2014,02,16,01,02,7.60
2014,02,16,01,03,8.20
2014,02,16,01,04,9.10
2014,02,16,01,05,5.60
2014,02,16,01,06,9.10
2014,02,16,01,07,9.00
2014,02,16,01,08,11.80
2014,02,16,01,09,10.70
2014,02,16,01,10,12.10
2014,02,16,01,11,11.00
2014,02,16,01,12,5.10
2014,02,16,01,13,12.30
2014,02,16,01,14,11.30
2014,02,16,01,15,10.00
2014,02,16,01,16,7.00
2014,02,16,01,17,5.90
2014,02,16,01,18,9.50
2014,02,16,01,19,6.40
2014,02,16,01,20,5.00
2014,02,16,01,21,7.90
2014,02,16,01,22,9.40
2014,02,16,01,23,9.60
2014,02,16,01,24,8.20
2014,02,16,01,25,5.60
2014,02,16,01,26,8.00
2014,02,16,01,27,6.10
2014,02,16,01,28,10.00
2014,02,16,01,29,5.40
2014,02,16,01,30,7.50
2014,02,16,01,31,6.50
2014,02,16,01,32,7.30
2014,02,16,01,33,6.90
2014,02,16,01,34,6.60
2014,02,16,01,35,9.70
2014,02,16,01,36,8.80
2014,02,16,01,37,11.00
2014,02,16,01,38,11.00
2014,02,16,01,39,8.10
2014,02,16,01,40,9.70
2014,02,16,01,41,10.10
2014,02,16,01,42,13.40
2014,02,16,01,43,12.00
2014,02,16,01,44,7.20
2014,02,16,01,45,5.70
2014,02,16,01,46,5.70
2014,02,16,01,47,5.80
2014,02,16,01,48,6.30
2014,02,16,01,49,6.70
2014,02,16,01,50,7.30
2014,02,16,01,51,8.40
2014,02,16,01,52,7.50
2014,02,16,01,53,7.00
2014,02,16,01,54,2.40
2014,02,16,01,55,3.00
2014,02,16,01,56,4.60
2014,02,16,01,57,3.00
2014,02,16,01,58,6.30
2014,02,16,01,59,5.40
2014,02,16,02,00,4.80
2014,02,16,02,01,2.00
2014,02,16,02,02,4.40
2014,02,16,02,03,8.10
2014,02,16,02,04,4.80
2014,02,16,02,05,7.20
2014,02,16,02,06,6.10
2014,02,16,02,07,3.70
2014,02,16,02,08,6.40
2014,02,16,02,09,12.80
2014,02,16,02,10,13.60
2014,02,16,02,11,10.80
2014,02,16,02,12,4.40
2014,02,16,02,13,5.70
2014,02,16,02,14,2.30
2014,02,16,02,15,10.40
2014,02,16,02,16,2.00
2014,02,16,02,17,4.20
2014,02,16,02,18,8.40
2014,02,16,02,19,10.70
2014,02,16,02,20,8.50
2014,02,16,02,21,8.10
2014,02,16,02,22,7.00
2014,02,16,02,23,8.10
2014,02,16,02,24,4.00
2014,02,16,02,25,9.00
2014,02,16,02,26,5.80
2014,02,16,02,27,7.60
2014,02,16,02,28,8.50
2014,02,16,02,29,5.90
2014,02,16,02,30,3.20
2014,02,16,02,31,7.50
2014,02,16,02,32,5.30
2014,02,16,02,33,7.60
2014,02,16,02,34,7.30
2014,02,16,02,35,3.80
2014,02,16,02,36,6.40
2014,02,16,02,37,9.00
2014,02,16,02,38,13.10
2014,02,16,02,39,15.20
2014,02,16,02,40,4.50
2014,02,16,02,41,5.50
2014,02,16,02,42,10.70
2014,02,16,02,43,7.70
2014,02,16,02,44,11.40
2014,02,16,02,45,7.90
2014,02,16,02,46,8.30
2014,02,16,02,47,4.30
2014,02,16,02,48,5.70
2014,02,16,02,49,10.20
2014,02,16,02,50,6.00
2014,02,16,02,51,9.70
2014,02,16,02,52,11.50
2014,02,16,02,53,9.10
2014,02,16,02,54,6.70
2014,02,16,02,55,3.70
2014,02,16,02,56,6.90
2014,02,16,02,57,6.90
2014,02,16,02,58,4.00
2014,02,16,02,59,8.30
2014,02,16,03,00,8.70
2014,02,16,03,01,17.40
2014,02,16,03,02,18.50
2014,02,16,03,03,11.10
2014,02,16,03,04,14.80
2014,02,16,03,05,13.90
2014,02,16,03,06,12.40
2014,02,16,03,07,6.10
2014,02,16,03,08,6.10
2014,02,16,03,09,12.30
2014,02,16,03,10,4.00
2014,02,16,03,11,8.70
2014,02,16,03,12,1.60
2014,02,16,03,13,1.60
2014,02,16,03,14,1.60
2014,02,16,03,15,1.60
2014,02,16,03,16,5.30
2014,02,16,03,17,8.00
2014,02,16,03,18,8.30
2014,02,16,03,19,5.80
2014,02,16,03,20,9.70
2014,02,16,03,21,7.40
2014,02,16,03,22,7.80
2014,02,16,03,23,7.90
2014,02,16,03,24,8.50
2014,02,16,03,25,9.00
2014,02,16,03,26,5.90
2014,02,16,03,27,8.70
2014,02,16,03,28,7.50
2014,02,16,03,29,8.50
2014,02,16,03,30,5.50
2014,02,16,03,31,4.80
2014,02,16,03,32,4.80
2014,02,16,03,33,7.80
2014,02,16,03,34,6.40
2014,02,16,03,35,6.60
2014,02,16,03,36,9.30
2014,02,16,03,37,5.00
2014,02,16,03,38,3.00
2014,02,16,03,39,5.50
2014,02,16,03,40,7.60
2014,02,16,03,41,7.50
2014,02,16,03,42,7.20
2014,02,16,03,43,5.60
2014,02,16,03,44,5.30
2014,02,16,03,45,6.20
2014,02,16,03,46,4.20
2014,02,16,03,47,8.30
2014,02,16,03,48,8.00
2014,02,16,03,49,8.40
2014,02,16,03,50,6.40
2014,02,16,03,51,5.90
2014,02,16,03,52,5.20
2014,02,16,03,53,9.20
2014,02,16,03,54,7.10
2014,02,16,03,55,8.00
2014,02,16,03,56,6.80
2014,02,16,03,57,7.40
2014,02,16,03,58,10.70
2014,02,16,03,59,7.90
2014,02,16,04,00,6.80
2014,02,16,04,01,3.40
2014,02,16,04,02,9.10
2014,02,16,04,03,10.50
2014,02,16,04,04,9.00
2014,02,16,04,05,5.90
2014,02,16,04,06,9.40
2014,02,16,04,07,5.30
2014,02,16,04,08,6.10
2014,02,16,04,09,8.80
2014,02,16,04,10,6.00
2014,02,16,04,11,6.80
2014,02,16,04,12,8.00
2014,02,16,04,13,7.50
2014,02,16,04,14,2.10
2014,02,16,04,15,5.30
2014,02,16,04,16,6.50
2014,02,16,04,17,3.10
2014,02,16,04,18,8.00
2014,02,16,04,19,6.00
2014,02,16,04,20,8.00
2014,02,16,04,21,2.70
2014,02,16,04,22,5.70
2014,02,16,04,23,6.50
2014,02,16,04,24,5.10
2014,02,16,04,25,2.90
2014,02,16,04,26,4.70
2014,02,16,04,27,10.00
2014,02,16,04,28,9.40
2014,02,16,04,29,8.30
2014,02,16,04,30,8.90
2014,02,16,04,31,7.20
2014,02,16,04,32,8.10
2014,02,16,04,33,4.70
2014,02,16,04,34,8.20
2014,02,16,04,35,5.30
2014,02,16,04,36,3.80
2014,02,16,04,37,6.10
2014,02,16,04,38,7.10
2014,02,16,04,39,5.90
2014,02,16,04,40,8.00
2014,02,16,04,41,4.40
2014,02,16,04,42,2.90
2014,02,16,04,43,7.20
2014,02,16,04,44,4.10
2014,02,16,04,45,4.40
2014,02,16,04,46,6.10
2014,02,16,04,47,3.90
2014,02,16,04,48,6.00
2014,02,16,04,49,5.70
2014,02,16,04,50,8.70
2014,02,16,04,51,11.50
2014,02,16,04,52,11.30
2014,02,16,04,53,9.80
2014,02,16,04,54,10.20
2014,02,16,04,55,8.80
2014,02,16,04,56,9.90
2014,02,16,04,57,7.20
2014,02,16,04,58,7.50
2014,02,16,04,59,12.10
2014,02,16,05,00,10.20
2014,02,16,05,01,7.20
2014,02,16,05,02,5.40
2014,02,16,05,03,8.50
2014,02,16,05,04,5.80
2014,02,16,05,05,8.00
2014,02,16,05,06,4.30
2014,02,16,05,07,4.70
2014,02,16,05,08,4.50
2014,02,16,05,09,6.70
2014,02,16,05,10,5.40
2014,02,16,05,11,8.30
2014,02,16,05,12,8.20
2014,02,16,05,13,5.40
2014,02,16,05,14,3.70
2014,02,16,05,15,5.90
2014,02,16,05,16,2.90
2014,02,16,05,17,2.30
2014,02,16,05,18,10.80
2014,02,16,05,19,11.30
2014,02,16,05,20,11.30
2014,02,16,05,21,11.30
2014,02,16,05,22,11.30
2014,02,16,05,23,11.30
2014,02,16,05,24,11.30
2014,02,16,05,25,11.30
2014,02,16,05,26,11.30
2014,02,16,05,27,11.30
2014,02,16,05,28,11.30
2014,02,16,05,46,0.40
2014,02,16,05,47,0.50
2014,02,16,05,48,2.70
2014,02,16,05,49,4.90
2014,02,16,05,50,4.50
2014,02,16,05,51,3.40
2014,02,16,05,52,4.80
2014,02,16,05,53,5.00
2014,02,16,05,54,6.40
2014,02,16,05,55,4.50
2014,02,16,05,56,6.80
2014,02,16,05,57,5.10
2014,02,16,05,58,3.10
2014,02,16,05,59,1.80
2014,02,16,06,00,3.70
2014,02,16,06,01,4.00
2014,02,16,06,02,1.80
2014,02,16,06,03,2.30
2014,02,16,06,04,0.80
2014,02,16,06,05,2.00
2014,02,16,06,06,6.90
2014,02,16,06,07,3.40
2014,02,16,06,08,4.30
2014,02,16,06,09,0.90
2014,02,16,06,10,1.40
2014,02,16,06,11,7.10
2014,02,16,06,12,3.90
2014,02,16,06,13,1.00
2014,02,16,06,14,4.10
2014,02,16,06,15,2.10
2014,02,16,06,16,2.90
2014,02,16,06,17,1.30
2014,02,16,06,18,0.30
2014,02,16,06,19,0.00
2014,02,16,06,20,3.20
2014,02,16,06,21,3.70
2014,02,16,06,22,2.90
2014,02,16,06,23,4.80
2014,02,16,06,24,1.80
2014,02,16,06,25,1.30
2014,02,16,06,26,2.20
2014,02,16,06,27,0.40
2014,02,16,06,28,0.10
2014,02,16,06,29,2.00
2014,02,16,06,30,0.50
2014,02,16,06,31,1.10
2014,02,16,06,32,1.80
2014,02,16,06,33,1.80
2014,02,16,06,34,2.90
2014,02,16,06,35,5.90
2014,02,16,06,36,7.00
2014,02,16,06,37,4.60
2014,02,16,06,38,5.80
2014,02,16,06,39,2.10
2014,02,16,06,40,5.50
2014,02,16,06,41,4.10
2014,02,16,06,42,4.00
2014,02,16,06,43,3.40
2014,02,16,06,44,1.20
2014,02,16,06,45,6.10
2014,02,16,06,46,3.50
2014,02,16,06,47,6.40
2014,02,16,06,48,6.70
2014,02,16,06,49,4.10
2014,02,16,06,50,7.70
2014,02,16,06,51,2.30
2014,02,16,06,52,6.20
2014,02,16,06,53,3.10
2014,02,16,06,54,4.40
2014,02,16,06,55,9.70
2014,02,16,06,56,10.20
2014,02,16,06,57,6.90
2014,02,16,06,58,6.80
2014,02,16,06,59,4.50
2014,02,16,07,00,6.70
2014,02,16,07,01,7.00
2014,02,16,07,02,5.10
2014,02,16,07,03,8.10
2014,02,16,07,04,3.60
2014,02,16,07,05,5.50
2014,02,16,07,06,6.50
2014,02,16,07,07,4.90
2014,02,16,07,08,1.80
2014,02,16,07,09,5.70
2014,02,16,07,10,5.90
2014,02,16,07,11,2.30
2014,02,16,07,12,6.80
2014,02,16,07,13,2.60
2014,02,16,07,14,5.30
2014,02,16,07,15,2.20
2014,02,16,07,16,4.20
2014,02,16,07,17,2.90
2014,02,16,07,18,0.30
2014,02,16,07,19,2.40
2014,02,16,07,20,8.30
2014,02,16,07,21,2.90
2014,02,16,07,22,3.80
2014,02,16,07,23,4.50
2014,02,16,07,24,5.60
2014,02,16,07,25,4.70
2014,02,16,07,26,2.80
2014,02,16,07,27,1.80
2014,02,16,07,28,3.10
2014,02,16,07,29,5.10
2014,02,16,07,30,4.30
2014,02,16,07,31,3.40
2014,02,16,07,32,2.40
2014,02,16,07,33,5.50
2014,02,16,07,34,4.80
2014,02,16,07,35,2.70
2014,02,16,07,36,1.50
2014,02,16,07,37,5.50
2014,02,16,07,38,2.60
2014,02,16,07,39,3.90
2014,02,16,07,40,5.70
2014,02,16,07,41,0.10
2014,02,16,07,42,1.20
2014,02,16,07,43,1.70
2014,02,16,07,44,0.10
2014,02,16,07,45,0.70
2014,02,16,07,46,0.00
2014,02,16,07,47,0.00
2014,02,16,07,48,2.00
2014,02,16,07,49,0.00
2014,02,16,07,50,1.20
2014,02,16,07,51,0.10
2014,02,16,07,52,3.10
2014,02,16,07,53,0.70
2014,02,16,07,54,0.30
2014,02,16,07,55,1.10
2014,02,16,07,56,2.00
2014,02,16,07,57,1.00
2014,02,16,07,58,0.80
2014,02,16,07,59,0.00
2014,02,16,08,00,0.00
2014,02,16,08,01,1.30
2014,02,16,08,02,1.70
2014,02,16,08,03,0.70
2014,02,16,08,04,0.10
2014,02,16,08,05,1.00
2014,02,16,08,06,0.40
2014,02,16,08,07,0.10
2014,02,16,08,08,1.60
2014,02,16,08,09,2.60
2014,02,16,08,10,0.60
2014,02,16,08,11,1.00
2014,02,16,08,12,2.50
2014,02,16,08,13,0.50
2014,02,16,08,14,0.00
2014,02,16,08,15,3.30
2014,02,16,08,16,0.20
2014,02,16,08,17,0.00
2014,02,16,08,18,0.00
2014,02,16,08,19,0.10
2014,02,16,08,20,0.00
2014,02,16,08,21,0.00
2014,02,16,08,22,0.00
2014,02,16,08,23,0.00
2014,02,16,08,24,0.00
2014,02,16,08,25,0.00
2014,02,16,08,26,0.60
2014,02,16,08,27,0.80
2014,02,16,08,28,0.00
2014,02,16,08,29,0.10
2014,02,16,08,30,0.60
2014,02,16,08,31,1.60
2014,02,16,08,32,0.90
2014,02,16,08,33,0.20
2014,02,16,08,34,0.00
2014,02,16,08,35,0.00
2014,02,16,08,36,1.60
2014,02,16,08,37,0.00
2014,02,16,08,38,0.00
2014,02,16,08,39,0.00
2014,02,16,08,40,0.00
2014,02,16,08,41,0.00
2014,02,16,08,42,0.00
2014,02,16,08,43,0.00
2014,02,16,08,44,0.00
2014,02,16,08,45,0.00
2014,02,16,08,46,0.00
2014,02,16,08,47,1.50
2014,02,16,08,48,0.30
2014,02,16,08,49,0.00
2014,02,16,08,50,0.00
2014,02,16,08,51,0.00
2014,02,16,08,52,0.00
2014,02,16,08,53,0.00
2014,02,16,08,54,0.00
2014,02,16,08,55,0.00
2014,02,16,08,56,0.00
2014,02,16,08,57,0.00
2014,02,16,08,58,0.00
2014,02,16,08,59,0.00
2014,02,16,09,00,0.00
2014,02,16,09,01,0.00
2014,02,16,09,02,0.00
2014,02,16,09,03,0.00
2014,02,16,09,04,0.00
2014,02,16,09,05,0.00
2014,02,16,09,06,0.00
2014,02,16,09,07,0.00
2014,02,16,09,08,0.00
2014,02,16,09,09,0.00
2014,02,16,09,10,0.50
2014,02,16,09,11,0.10
2014,02,16,09,12,0.60
2014,02,16,09,13,0.00
2014,02,16,09,14,0.00
2014,02,16,09,15,0.00
2014,02,16,09,16,1.00
2014,02,16,09,17,0.70
2014,02,16,09,18,0.00
2014,02,16,09,19,0.00
2014,02,16,09,20,0.00
2014,02,16,09,21,0.00
2014,02,16,09,22,0.00
2014,02,16,09,23,0.00
2014,02,16,09,24,0.00
2014,02,16,09,25,0.00
2014,02,16,09,26,0.00
2014,02,16,09,27,0.00
2014,02,16,09,28,0.00
2014,02,16,09,29,0.00
2014,02,16,09,30,0.00
2014,02,16,09,31,0.00
2014,02,16,09,32,0.00
2014,02,16,09,33,0.00
2014,02,16,09,34,0.00
2014,02,16,09,35,1.10
2014,02,16,09,36,0.10
2014,02,16,09,37,1.80
2014,02,16,09,38,0.00
2014,02,16,09,39,0.00
2014,02,16,09,40,0.00
2014,02,16,09,41,0.00
2014,02,16,09,42,0.40
2014,02,16,09,43,0.00
2014,02,16,09,44,0.00
2014,02,16,09,45,0.00
2014,02,16,09,46,0.10
2014,02,16,09,47,0.00
2014,02,16,09,48,0.00
2014,02,16,09,49,0.00
2014,02,16,09,50,0.00
2014,02,16,09,51,0.50
2014,02,16,09,52,0.00
2014,02,16,09,53,0.00
2014,02,16,09,54,0.40
2014,02,16,09,55,0.00
2014,02,16,09,56,2.10
2014,02,16,09,57,1.20
2014,02,16,09,58,2.50
2014,02,16,09,59,0.10
2014,02,16,10,00,0.30
2014,02,16,10,01,0.00
2014,02,16,10,02,0.00
2014,02,16,10,03,3.30
2014,02,16,10,04,0.80
2014,02,16,10,05,0.20
2014,02,16,10,06,0.80
2014,02,16,10,07,3.00
2014,02,16,10,08,0.40
2014,02,16,10,09,4.70
2014,02,16,10,10,1.90
2014,02,16,10,11,1.50
2014,02,16,10,12,2.10
2014,02,16,10,13,1.80
2014,02,16,10,14,2.30
2014,02,16,10,15,0.80
2014,02,16,10,16,0.10
2014,02,16,10,17,0.00
2014,02,16,10,18,4.00
2014,02,16,10,19,2.00
2014,02,16,10,20,3.10
2014,02,16,10,21,0.00
2014,02,16,10,22,0.90
2014,02,16,10,23,0.10
2014,02,16,10,24,2.10
2014,02,16,10,25,2.80
2014,02,16,10,26,0.50
2014,02,16,10,27,3.60
2014,02,16,10,28,2.30
2014,02,16,10,29,2.80
2014,02,16,10,30,1.80
2014,02,16,10,31,3.50
2014,02,16,10,32,0.00
2014,02,16,10,33,2.40
2014,02,16,10,34,6.10
2014,02,16,10,35,2.20
2014,02,16,10,36,1.50
2014,02,16,10,37,1.80
2014,02,16,10,38,6.40
2014,02,16,10,39,2.60
2014,02,16,10,40,2.50
2014,02,16,10,41,1.50
2014,02,16,10,42,4.80
2014,02,16,10,43,4.20
2014,02,16,10,44,2.80
2014,02,16,10,45,7.50
2014,02,16,10,46,3.00
2014,02,16,10,47,4.10
2014,02,16,10,48,4.20
2014,02,16,10,49,4.80
2014,02,16,10,50,4.80
2014,02,16,10,51,3.70
2014,02,16,10,52,3.10
2014,02,16,10,53,4.80
2014,02,16,10,54,4.50
2014,02,16,10,55,2.20
2014,02,16,10,56,1.80
2014,02,16,10,57,3.00
2014,02,16,10,58,2.70
2014,02,16,10,59,0.20
2014,02,16,11,00,2.00
2014,02,16,11,01,2.80
2014,02,16,11,02,6.10
2014,02,16,11,03,5.60
2014,02,16,11,04,0.80
2014,02,16,11,05,0.00
2014,02,16,11,06,0.00
2014,02,16,11,07,0.00
2014,02,16,11,08,0.60
2014,02,16,11,09,4.40
2014,02,16,11,10,5.40
2014,02,16,11,11,2.30
2014,02,16,11,12,2.70
2014,02,16,11,13,5.30
2014,02,16,11,14,2.10
2014,02,16,11,15,4.80
2014,02,16,11,16,9.40
2014,02,16,11,17,6.60
2014,02,16,11,18,7.00
2014,02,16,11,19,1.50
2014,02,16,11,20,7.00
2014,02,16,11,21,3.90
2014,02,16,11,22,1.80
2014,02,16,11,23,5.70
2014,02,16,11,24,6.90
2014,02,16,11,25,8.90
2014,02,16,11,26,7.50
2014,02,16,11,27,3.30
2014,02,16,11,28,4.20
2014,02,16,11,29,3.20
2014,02,16,11,30,6.40
2014,02,16,11,31,8.20
2014,02,16,11,32,6.60
2014,02,16,11,33,7.10
2014,02,16,11,34,6.00
2014,02,16,11,35,7.60
2014,02,16,11,36,6.20
2014,02,16,11,37,5.10
2014,02,16,11,38,7.10
2014,02,16,11,39,6.00
2014,02,16,11,40,4.30
2014,02,16,11,41,1.20
2014,02,16,11,42,4.80
2014,02,16,11,43,6.70
2014,02,16,11,44,5.50
2014,02,16,11,45,8.90
2014,02,16,11,46,4.80
2014,02,16,11,47,6.90
2014,02,16,11,48,4.10
2014,02,16,11,49,8.00
2014,02,16,11,50,5.20
2014,02,16,11,51,2.10
2014,02,16,11,52,4.20
2014,02,16,11,53,3.30
2014,02,16,11,54,5.30
2014,02,16,11,55,7.70
2014,02,16,11,56,9.40
2014,02,16,11,57,5.70
2014,02,16,11,58,6.50
2014,02,16,11,59,5.40
2014,02,16,12,00,3.40
2014,02,16,12,01,5.70
2014,02,16,12,02,5.00
2014,02,16,12,03,5.20
2014,02,16,12,04,3.40
2014,02,16,12,05,1.00
2014,02,16,12,06,1.60
2014,02,16,12,07,2.30
2014,02,16,12,08,6.50
2014,02,16,12,09,5.10
2014,02,16,12,10,8.60
2014,02,16,12,11,9.90
2014,02,16,12,12,8.40
2014,02,16,12,13,6.70
2014,02,16,12,14,6.40
2014,02,16,12,15,2.80
2014,02,16,12,16,6.50
2014,02,16,12,17,2.20
2014,02,16,12,18,5.70
2014,02,16,12,19,4.10
2014,02,16,12,20,0.90
2014,02,16,12,21,2.30
2014,02,16,12,22,2.70
2014,02,16,12,23,6.50
2014,02,16,12,24,4.20
2014,02,16,12,25,3.10
2014,02,16,12,26,5.30
2014,02,16,12,27,2.40
2014,02,16,12,28,2.00
2014,02,16,12,29,3.80
2014,02,16,12,30,0.10
2014,02,16,12,31,3.80
2014,02,16,12,32,2.80
2014,02,16,12,33,5.60
2014,02,16,12,34,6.90
2014,02,16,12,35,2.80
2014,02,16,12,36,2.00
2014,02,16,12,37,6.60
2014,02,16,12,38,3.80
2014,02,16,12,39,7.10
2014,02,16,12,40,6.90
2014,02,16,12,41,5.10
2014,02,16,12,42,4.90
2014,02,16,12,43,3.80
2014,02,16,12,44,2.60
2014,02,16,12,45,7.10
2014,02,16,12,46,3.30
2014,02,16,12,47,5.50
2014,02,16,12,48,5.70
2014,02,16,12,49,0.70
2014,02,16,12,50,5.10
2014,02,16,12,51,3.00
2014,02,16,12,52,7.30
2014,02,16,12,53,4.40
2014,02,16,12,54,6.00
2014,02,16,12,55,6.30
2014,02,16,12,56,5.90
2014,02,16,12,57,3.90
2014,02,16,12,58,4.60
2014,02,16,12,59,3.10
2014,02,16,13,00,3.10
2014,02,16,13,01,0.80
2014,02,16,13,02,2.10
2014,02,16,13,03,3.10
2014,02,16,13,04,0.20
2014,02,16,13,05,0.50
2014,02,16,13,06,0.90
2014,02,16,13,07,4.80
2014,02,16,13,08,5.10
2014,02,16,13,09,4.80
2014,02,16,13,10,0.80
2014,02,16,13,11,2.50
2014,02,16,13,12,2.60
2014,02,16,13,13,2.00
2014,02,16,13,14,6.20
2014,02,16,13,15,1.20
2014,02,16,13,16,2.80
2014,02,16,13,17,1.70
2014,02,16,13,18,2.70
2014,02,16,13,19,3.30
2014,02,16,13,20,1.50
2014,02,16,13,21,4.30
2014,02,16,13,22,5.80
2014,02,16,13,23,3.20
2014,02,16,13,24,6.10
2014,02,16,13,25,4.80
2014,02,16,13,26,6.50
2014,02,16,13,27,4.80
2014,02,16,13,28,1.80
2014,02,16,13,29,1.50
2014,02,16,13,30,4.80
2014,02,16,13,31,3.90
2014,02,16,13,32,1.80
2014,02,16,13,33,3.90
2014,02,16,13,34,5.00
2014,02,16,13,35,3.50
2014,02,16,13,36,1.40
2014,02,16,13,37,5.00
2014,02,16,13,38,5.40
2014,02,16,13,39,0.70
2014,02,16,13,40,6.30
2014,02,16,13,41,7.60
2014,02,16,13,42,5.60
2014,02,16,13,43,5.10
2014,02,16,13,44,6.80
2014,02,16,13,45,5.60
2014,02,16,13,46,5.10
2014,02,16,13,47,4.20
2014,02,16,13,48,3.80
2014,02,16,13,49,6.80
2014,02,16,13,50,7.80
2014,02,16,13,51,4.70
2014,02,16,13,52,6.40
2014,02,16,13,53,5.10
2014,02,16,13,54,3.70
2014,02,16,13,55,5.10
2014,02,16,13,56,8.40
2014,02,16,13,57,3.60
2014,02,16,13,58,6.80
2014,02,16,13,59,6.40
2014,02,16,14,00,6.40
2014,02,16,14,01,6.40
2014,02,16,14,02,6.40
2014,02,16,14,03,6.40
2014,02,16,14,04,6.40
2014,02,16,14,05,6.40
2014,02,16,14,06,6.30
2014,02,16,14,07,5.40
2014,02,16,14,08,5.70
2014,02,16,14,09,8.70
2014,02,16,14,10,3.70
2014,02,16,14,11,3.00
2014,02,16,14,12,6.60
2014,02,16,14,13,6.70
2014,02,16,14,14,5.90
2014,02,16,14,15,2.20
2014,02,16,14,16,5.60
2014,02,16,14,17,7.50
2014,02,16,14,18,5.60
2014,02,16,14,19,9.70
2014,02,16,14,20,7.40
2014,02,16,14,21,7.50
2014,02,16,14,22,5.80
2014,02,16,14,23,8.00
2014,02,16,14,24,7.00
2014,02,16,14,25,7.10
2014,02,16,14,26,7.30
2014,02,16,14,27,8.30
2014,02,16,14,28,11.80
2014,02,16,14,29,7.20
2014,02,16,14,30,9.40
2014,02,16,14,31,9.20
2014,02,16,14,32,10.30
2014,02,16,14,33,7.20
2014,02,16,14,34,7.50
2014,02,16,14,35,8.50
2014,02,16,14,36,7.80
2014,02,16,14,37,11.40
2014,02,16,14,38,10.90
2014,02,16,14,39,10.50
2014,02,16,14,40,5.80
2014,02,16,14,41,5.70
2014,02,16,14,42,8.00
2014,02,16,14,43,7.20
2014,02,16,14,44,10.10
2014,02,16,14,45,5.00
2014,02,16,14,46,12.30
2014,02,16,14,47,8.10
2014,02,16,14,48,14.60
2014,02,16,14,49,8.10
2014,02,16,14,50,8.60
2014,02,16,14,51,8.30
2014,02,16,14,52,10.40
2014,02,16,14,53,6.20
2014,02,16,14,54,6.80
2014,02,16,14,55,6.80
2014,02,16,14,56,9.10
2014,02,16,14,57,4.50
2014,02,16,14,58,8.40
2014,02,16,14,59,10.00
2014,02,16,15,00,9.00
2014,02,16,15,01,6.50
2014,02,16,15,02,10.30
2014,02,16,15,03,9.60
2014,02,16,15,04,5.20
2014,02,16,15,05,10.90
2014,02,16,15,06,10.90
2014,02,16,15,07,9.00
2014,02,16,15,08,4.90
2014,02,16,15,09,4.60
2014,02,16,15,10,8.30
2014,02,16,15,11,10.40
2014,02,16,15,12,10.00
2014,02,16,15,13,12.20
2014,02,16,15,14,13.60
2014,02,16,15,15,5.20
2014,02,16,15,16,8.60
2014,02,16,15,17,7.50
2014,02,16,15,18,9.70
2014,02,16,15,19,2.40
2014,02,16,15,20,10.10
2014,02,16,15,21,9.40
2014,02,16,15,22,10.20
2014,02,16,15,23,11.20
2014,02,16,15,24,7.00
2014,02,16,15,25,10.10
2014,02,16,15,26,9.30
2014,02,16,15,27,7.90
2014,02,16,15,28,8.10
2014,02,16,15,29,5.70
2014,02,16,15,30,2.60
2014,02,16,15,31,10.20
2014,02,16,15,32,7.10
2014,02,16,15,33,6.40
2014,02,16,15,34,9.20
2014,02,16,15,35,10.20
2014,02,16,15,36,9.10
2014,02,16,15,37,9.90
2014,02,16,15,38,13.00
2014,02,16,15,39,7.40
2014,02,16,15,40,7.90
2014,02,16,15,41,7.70
2014,02,16,15,42,9.20
2014,02,16,15,43,7.30
2014,02,16,15,44,10.60
2014,02,16,15,45,10.40
2014,02,16,15,46,7.70
2014,02,16,15,47,11.60
2014,02,16,15,48,12.50
2014,02,16,15,49,9.70
2014,02,16,15,50,5.50
2014,02,16,15,51,5.70
2014,02,16,15,52,9.20
2014,02,16,15,53,11.10
2014,02,16,15,54,10.50
2014,02,16,15,55,8.90
2014,02,16,15,56,6.60
2014,02,16,15,57,9.70
2014,02,16,15,58,10.30
2014,02,16,15,59,9.40
2014,02,16,16,00,8.40
2014,02,16,16,01,11.90
2014,02,16,16,02,5.70
2014,02,16,16,03,9.50
2014,02,16,16,04,11.20
2014,02,16,16,05,9.00
2014,02,16,16,06,5.60
2014,02,16,16,07,8.80
2014,02,16,16,08,9.80
2014,02,16,16,09,13.40
2014,02,16,16,10,6.30
2014,02,16,16,11,5.70
2014,02,16,16,12,8.80
2014,02,16,16,13,13.30
2014,02,16,16,14,12.60
2014,02,16,16,15,8.00
2014,02,16,16,16,8.80
2014,02,16,16,17,8.40
2014,02,16,16,18,4.40
2014,02,16,16,19,11.00
2014,02,16,16,20,11.60
2014,02,16,16,21,14.30
2014,02,16,16,22,13.40
2014,02,16,16,23,8.60
2014,02,16,16,24,10.50
2014,02,16,16,25,11.00
2014,02,16,16,26,10.70
2014,02,16,16,27,5.10
2014,02,16,16,28,10.60
2014,02,16,16,29,11.00
2014,02,16,16,30,5.90
2014,02,16,16,31,8.10
2014,02,16,16,32,9.50
2014,02,16,16,33,8.40
2014,02,16,16,34,8.20
2014,02,16,16,35,6.10
2014,02,16,16,36,7.30
2014,02,16,16,37,6.20
2014,02,16,16,38,3.80
2014,02,16,16,39,8.40
2014,02,16,16,40,6.80
2014,02,16,16,41,6.30
2014,02,16,16,42,9.10
2014,02,16,16,43,8.40
2014,02,16,16,44,12.90
2014,02,16,16,45,5.00
2014,02,16,16,46,3.50
2014,02,16,16,47,8.00
2014,02,16,16,48,6.80
2014,02,16,16,49,7.70
2014,02,16,16,50,8.40
2014,02,16,16,51,11.10
2014,02,16,16,52,9.40
2014,02,16,16,53,10.10
2014,02,16,16,54,6.10
2014,02,16,16,55,7.60
2014,02,16,16,56,3.20
2014,02,16,16,57,8.70
2014,02,16,16,58,7.10
2014,02,16,16,59,14.60
2014,02,16,17,00,7.80
2014,02,16,17,01,10.00
2014,02,16,17,02,10.50
2014,02,16,17,03,10.50
2014,02,16,17,04,8.70
2014,02,16,17,05,11.90
2014,02,16,17,06,8.60
2014,02,16,17,07,7.40
2014,02,16,17,08,12.60
2014,02,16,17,09,9.10
2014,02,16,17,10,8.90
2014,02,16,17,11,8.40
2014,02,16,17,12,12.50
2014,02,16,17,13,13.20
2014,02,16,17,14,8.30
2014,02,16,17,15,9.20
2014,02,16,17,16,8.10
2014,02,16,17,17,11.70
2014,02,16,17,18,11.40
2014,02,16,17,19,12.60
2014,02,16,17,20,9.70
2014,02,16,17,21,13.40
2014,02,16,17,22,10.00
2014,02,16,17,23,14.90
2014,02,16,17,24,8.70
2014,02,16,17,25,10.80
2014,02,16,17,26,11.00
2014,02,16,17,27,13.30
2014,02,16,17,28,13.30
2014,02,16,17,29,8.80
2014,02,16,17,30,5.30
2014,02,16,17,31,11.30
2014,02,16,17,32,9.20
2014,02,16,17,33,10.00
2014,02,16,17,34,9.10
2014,02,16,17,35,8.90
2014,02,16,17,36,6.70
2014,02,16,17,37,13.80
2014,02,16,17,38,9.70
2014,02,16,17,39,13.30
2014,02,16,17,40,9.80
2014,02,16,17,41,8.30
2014,02,16,17,42,9.70
2014,02,16,17,43,5.90
2014,02,16,17,44,10.30
2014,02,16,17,45,11.00
2014,02,16,17,46,7.20
2014,02,16,17,47,9.20
2014,02,16,17,48,8.30
2014,02,16,17,49,3.40
2014,02,16,17,50,7.10
2014,02,16,17,51,5.10
2014,02,16,17,52,3.40
2014,02,16,17,53,6.70
2014,02,16,17,54,10.20
2014,02,16,17,55,13.00
2014,02,16,17,56,4.10
2014,02,16,17,57,9.40
2014,02,16,17,58,5.10
2014,02,16,17,59,9.70
2014,02,16,18,00,7.50
2014,02,16,18,01,7.50
2014,02,16,18,02,6.30
2014,02,16,18,03,8.00
2014,02,16,18,04,8.80
2014,02,16,18,05,12.30
2014,02,16,18,06,8.90
2014,02,16,18,07,7.60
2014,02,16,18,08,8.80
2014,02,16,18,09,7.70
2014,02,16,18,10,5.20
2014,02,16,18,11,2.90
2014,02,16,18,12,8.70
2014,02,16,18,13,9.30
2014,02,16,18,14,9.80
2014,02,16,18,15,9.40
2014,02,16,18,16,4.40